Regional Weather Roundup
Issued by NWS

Home | Current Version | Previous Version | Graphics & Text | Print | Product List | Glossary On
Versions: 1 2 3 4 5 6 7 8 9 10 11 12 13 14 15 16 17 18 19 20 21 22 23 24 25 26 27 28 29 30 31 32 33 34 35 36 37 38 39 40 41 42 43 44 45 46 47 48 49 50
000
ASUS43 KIND 261959
RWRIN

WEATHER ROUNDUP FOR INDIANA
NATIONAL WEATHER SERVICE INDIANAPOLIS IN
400 PM EDT SUN APR 26 2015

NOTE: "FAIR" INDICATES FEW OR NO CLOUDS BELOW 12,000 FEET WITH NO
SIGNIFICANT WEATHER AND/OR OBSTRUCTIONS TO VISIBILITY.

* - STATION DOES NOT REPORT WEATHER SUCH AS PRECIPITATION OR FOG.

+ - STATION NOT QUALITY CONTROLLED BY THE NATIONAL WEATHER SERVICE.
    USE DATA WITH CAUTION...ESPECIALLY DEWPOINT AND RELATIVE
    HUMIDITY OBSERVATIONS.

INZ001>003-010>013-019-020-262100-
NORTHWEST INDIANA

CITY           SKY/WX    TMP DP  RH WIND       PRES   REMARKS
KNOX *+        SUNNY     54   7  15 N20       29.95S

$$

LMZ046-743>745-262100-
SOUTHERN LAKE MICHIGAN

STATION/POSITION TIME  TEMP    WIND        PRES    WAVE
                       AIR SEA DIR/SP/G            HT
                 (UTC) (F)     (DEG/KT/KT) (MB)    (FT)
BURNS HARBOR     1900   40     360/  9/ 13 1016.9S
MICHIGAN CITY    1900   40     340/ 14/ 15   N/A
5NW MICH CITY    1900   39 45  360/ 14/ 17   N/A     3

$$

INZ004-005-014>016-021>024-262100-
NORTH CENTRAL INDIANA

CITY           SKY/WX    TMP DP  RH WIND       PRES   REMARKS
ELKHART        PTSUNNY   55  25  30 N9G22     29.93F
GOSHEN         MOSUNNY   56  31  38 NE13G24   29.92F
SOUTH BEND     SUNNY     55  31  39 N18       29.96F
WARSAW +       SUNNY     55  32  41 NE12G18   29.92S

$$

INZ006>009-017-018-025>027-262100-
NORTHEAST INDIANA

CITY           SKY/WX    TMP DP  RH WIND       PRES   REMARKS
ANGOLA *+      PTSUNNY   54  30  40 NE9       29.90F
FORT WAYNE     MOSUNNY   58  36  43 N13       29.91S

$$

INZ028-029-035-036-043>045-051>053-262100-
WEST CENTRAL INDIANA

CITY           SKY/WX    TMP DP  RH WIND       PRES   REMARKS
CRAWFORDSVL +  PTSUNNY   53  31  42 N13G21    29.93S
GREENCASTLE +  MOSUNNY   55  32  41 N10       29.92S
LAFAYETTE      PTSUNNY   55  34  45 N12       29.93F
TERRE HAUTE    SUNNY     59  38  45 NE12G21   29.91F

$$

INZ030>032-037>040-046>048-054>057-064-065-262100-
CENTRAL INDIANA

CITY           SKY/WX    TMP DP  RH WIND       PRES   REMARKS
COLUMBUS       SUNNY     57  32  38 N10       29.89F
FRANKFORT +    MOSUNNY   55  37  50 N13G23    29.94F
GREENWOOD *+   SUNNY     55  32  41 N12G17    29.90F
INDIANAPOLIS   MOSUNNY   56  35  45 N14G21    29.90S
-EAGLE CREEK   MOSUNNY   54  34  46 N10       29.91S
KOKOMO *+      SUNNY     57  36  44 NE15G22   29.92S
MT COMFORT *+  MOSUNNY   55  27  33 N10G18    29.91S
SHELBYVILLE    MOSUNNY   59  36  42 N14G20    29.88F

$$

INZ033-034-041-042-049-050-058-059-262100-
EAST CENTRAL INDIANA

CITY           SKY/WX    TMP DP  RH WIND       PRES   REMARKS
MUNCIE         MOSUNNY   56  36  47 NE8       29.89F

$$

INZ060-061-067>069-081>083-085>088-262100-
SOUTHWEST INDIANA

CITY           SKY/WX    TMP DP  RH WIND       PRES   REMARKS
EVANSVILLE     SUNNY     62  33  33 N16       29.88S
HUNTINGBURG *+ SUNNY     61  36  39 N12       29.86F

$$

INZ062-063-066-070>080-084-089>092-262100-
SOUTH CENTRAL AND SOUTHEAST INDIANA

CITY           SKY/WX    TMP DP  RH WIND       PRES   REMARKS
BLOOMINGTON    SUNNY     60  34  37 NE10      29.88F
MADISON *+     SUNNY     61  30  31 NW9       29.86F
SEYMOUR +      SUNNY     61  36  39 N12G24    29.87F

$$



USA.gov is the U.S. government's official web portal to all federal, state and local government web resources and services.